Location: Kaarina
(60.4167°N, 22.4167°E)
Time: 19:13:08
(UTC+03:00)

Lacrosse 4 Rocket - Pass Details

Date: 24 August 2019
Orbit: 543 x 616 km, 68.0° (Epoch: 15 September)

Event Time Altitude Azimuth Distance (km) Brightness Sun altitude
Rises 23:41:03 0° 310° (NW) 2,801 6.3 -15.2°
Reaches altitude 10° 23:43:18 10° 312° (NW) 1,887 5.2 -15.4°
Maximum altitude 23:47:32 80° 40° (NE) 578 1.4 -15.6°
Enters shadow 23:49:45 27° 125° (SE) 1,104 2.4 -15.7°
